EW5144 Weather Reports


Display with metric or nautical units.
time (UTC)temp
F
wind
direction
speed
MPH
gust
MPH
rain 1hr
in
rain 24hr
in
rain mn
in
humidity
%
barometer
mb
20260505054545 52 56 0.0 1.0 0.00 0.00 0.00 78 1011.0
20260505053044 53 75 0.0 1.0 0.00 0.00 0.00 77 1010.9
20260505051605 53 110 0.0 3.0 0.00 0.00 0.00 77 1010.9
20260505041534 54 123 0.0 3.0 0.00 0.00 0.00 73 1011.0
20260505040033 54 108 0.0 3.0 0.00 0.00 0.00 72 1011.0
20260505034531 55 125 0.0 2.0 0.00 0.00 0.00 71 1010.9
20260505033031 55 23 0.0 3.0 0.00 0.00 0.00 70 1010.8
20260505031529 56 110 0.0 2.0 0.00 0.00 0.00 68 1010.9
20260505030031 56 245 0.0 3.0 0.00 0.00 0.00 67 1010.9
20260505024529 56 161 0.0 4.0 0.00 0.00 0.00 65 1010.9
20260505023028 57 65 0.0 4.0 0.00 0.00 0.00 64 1010.9
20260505021527 57 132 0.0 5.0 0.00 0.00 0.00 62 1011.0
20260505020027 57 153 0.0 3.0 0.00 0.00 0.00 61 1011.0
20260505014528 57 105 0.0 5.0 0.00 0.00 0.00 59 1010.9
20260505013025 58 139 0.0 4.0 0.00 0.00 0.00 57 1010.7
20260505011626 59 141 1.0 3.0 0.00 0.00 0.00 56 1010.5
20260505010024 59 129 0.0 3.0 0.00 0.00 0.00 54 1010.2
20260505004525 60 111 1.0 5.0 0.00 0.00 0.00 53 1009.8
20260505003024 60 118 0.0 4.0 0.00 0.00 0.00 54 1009.6
20260505001522 60 135 1.0 7.0 0.00 0.00 0.00 52 1009.2
20260505000022 62 148 1.0 6.0 0.00 0.00 0.00 50 1009.0
20260504234523 63 189 1.0 6.0 0.00 0.00 0.00 48 1008.8
20260504233020 64 122 0.0 2.0 0.00 0.00 0.00 46 1008.5
20260504231519 65 153 0.0 5.0 0.00 0.00 0.00 45 1008.2
20260504230019 66 122 1.0 6.0 0.00 0.00 0.00 44 1007.8
20260504224519 67 360 2.0 8.0 0.00 0.00 0.00 42 1007.5
20260504223018 67 200 0.0 7.0 0.00 0.00 0.00 41 1007.3
20260504221516 68 140 0.0 7.0 0.00 0.00 0.00 39 1007.3
20260504220016 69 117 2.0 8.0 0.00 0.00 0.00 37 1007.1
20260504214515 70 150 1.0 5.0 0.00 0.00 0.00 34 1007.1
20260504213017 72 108 1.0 4.0 0.00 0.00 0.00 31 1007.1
20260504211513 72 120 0.0 5.0 0.00 0.00 0.00 31 1007.1
20260504210012 73 113 0.0 3.0 0.00 0.00 0.00 29 1007.0
20260504204511 72 136 0.0 4.0 0.00 0.00 0.00 30 1007.0
20260504203017 73 179 1.0 7.0 0.00 0.00 0.00 29 1007.1
20260504201510 73 168 1.0 7.0 0.00 0.00 0.00 28 1007.1
20260504200008 73 68 1.0 6.0 0.00 0.00 0.00 28 1007.1
20260504194508 74 28 0.0 5.0 0.00 0.00 0.00 28 1007.2
20260504193014 74 141 1.0 8.0 0.00 0.00 0.00 29 1007.2
20260504191520 75 169 0.0 5.0 0.00 0.00 0.00 27 1007.1
20260504190004 75 134 2.0 7.0 0.00 0.00 0.00 27 1007.4
20260504184503 75 62 1.0 5.0 0.00 0.00 0.00 27 1007.6
20260504183101 75 328 1.0 9.0 0.00 0.00 0.00 28 1007.7
20260504181558 74 136 0.0 6.0 0.00 0.00 0.00 28 1007.8
20260504180057 74 37 1.0 6.0 0.00 0.00 0.00 27 1008.0
20260504174559 74 145 0.0 9.0 0.00 0.00 0.00 28 1008.0
20260504173057 73 41 2.0 10.0 0.00 0.00 0.00 28 1008.1
20260504171553 73 130 1.0 9.0 0.00 0.00 0.00 29 1008.0
20260504081519 46 102 0.0 1.0 0.00 0.00 0.00 57 1010.9
20260504060120 42 151 0.0 0.0 0.00 0.00 0.00 67 1010.8